Location: *
(50.3440°N, 18.6237°E)
Time: 17:58:16
(UTC+00:00)

Cosmos 1603 - Pass Details

Date: 30 November 2020
Orbit: 831 x 859 km, 71.0° (Epoch: 22 January)

Event Time Altitude Azimuth Distance (km) Brightness Sun altitude
Rises 18:01:28 0° 222° (SW) 3,376 7.4 -30.4°
Reaches altitude 10° 18:03:57 10° 226° (SW) 2,443 6.6 -30.8°
Enters shadow 18:09:22 56° 301° (WNW) 989 4.2 -31.6°
